Welcome to the New NWS' Forecast!
Most changes are behind the scenes, but click here for differences you might notice.
Latest weather observations around

Pine Bluff, Grider Field Airport (KPBF)

Using English Units (Switch to International System of Units)
Date/ Time (CST) Wind (mph) Vis. (mi) Weather Sky Cond. Temp (°F) Rel. Humidity Wind Chill (°F) Heat Index (°F) Pressure Precip. (in)
Air Dwpt 6 hour Altimeter (inHg) Sea level (inHg) 1 hr 3 hr 6 hr
Max Min
Jan 21 09:53 S 18 10 Cloudy OVC012 60 56     86%     30.08 30.08      
Jan 21 08:53 S 14 10 Cloudy OVC012 60 56     86%     30.07 30.06      
Jan 21 07:53 S 13 10 Cloudy OVC014 58 55     90%     30.06 30.06      
Jan 21 07:51 S 9 10 Cloudy OVC014 57 55     94%     30.06        
Jan 21 07:33 S 11 10 Cloudy OVC015 58 55     90%     30.06        
Jan 21 06:53 S 10 10 Cloudy OVC013 58 55     90%     30.06 30.06      
Jan 21 05:53 S 10 10 Cloudy OVC012 58 55     90%     30.06 30.05      
Jan 21 04:53 S 13 10 Cloudy OVC011 59 56     90%     30.05 30.04      
Jan 21 03:53 S 15 10 Cloudy OVC012 60 56     86%     30.04 30.04      
Jan 21 02:53 S 14 10 Cloudy OVC013 60 56     86%     30.05 30.04      
Jan 21 01:53 S 15 10 Cloudy OVC013 60 56     86%     30.05 30.04      
Jan 21 00:53 S 13 10 Cloudy OVC013 59 56     90%     30.04 30.04      
Jan 21 00:27 S 21 10 Cloudy and Windy OVC014 59 56     90%     30.05        
Jan 20 23:53 S 15 10 Mostly Cloudy BKN017 BKN055 59 55     87%     30.05 30.04      
Jan 20 22:53 S 15 10 Cloudy BKN015 BKN021 OVC060 59 55     87%     30.06 30.06      
Jan 20 22:40 S 15 10 Cloudy OVC015 59 55     87%     30.07        
Jan 20 22:19 S 14 10 Mostly Cloudy BKN014 BKN055 58 55     90%     30.07        
Jan 20 20:53 S 16 10 Mostly Cloudy SCT019 BKN060 58 55     90%     30.08 30.07      
Jan 20 20:51 S 14 10 Partly Cloudy SCT019 SCT060 57 54     88%     30.08        
Jan 20 20:21 S 11 10 Mostly Cloudy SCT016 BKN021 BKN038 57 54     89%     30.08        
Jan 20 19:53 S 9 10 Partly Cloudy SCT055 57 54     89%       30.08      
Jan 20 18:53 S 13 10 Mostly Cloudy FEW029 BKN043 BKN050 60 54     80%       30.07      
Jan 20 17:53 SSE 10 10 Cloudy FEW030 OVC047 60 54     80%       30.06     0
Jan 20 17:25 S 11 10 Cloudy SCT027 BKN035 OVC042 60 54     80%     30.06        
Jan 20 17:00 S 10 10 Cloudy BKN028 OVC043 61 54     78%     30.06        
Jan 20 16:53 S 10 10 Cloudy BKN030 OVC043 61 54     78%     30.06 30.05      
Jan 20 15:53 SSE 9 10 Cloudy OVC038 62 53     72%     30.05 30.05      
Jan 20 15:23 S 10 10 Cloudy SCT027 OVC034 62 54     75%     30.05        
Jan 20 14:53 S 14 10 Cloudy OVC023 62 54     75%     30.06 30.06   0  
Jan 20 13:53 S 14 10 Cloudy OVC018 61 53     75%     30.07 30.06 0    
Jan 20 12:53 SSW 11 10 Light Rain BKN020 BKN032 OVC070 58 52     81%       30.09 0    
Jan 20 11:53 S 11 10 Cloudy SCT032 SCT042 OVC065 59 50     72%     30.12 30.12      
Jan 20 11:01 S 14 10 Cloudy SCT014 BKN032 OVC060 56 47     72%     30.15        
Jan 20 10:53 S 11 10 Cloudy BKN014 BKN032 OVC060 56 47     72%       30.15      
Jan 20 10:08 S 13 10 Cloudy BKN014 OVC028 52 44     74%     30.17        
Jan 20 09:53 S 10 10 Cloudy FEW015 BKN025 OVC030 51 43     74%     30.16 30.16      
Jan 20 09:08 S 10 10 Cloudy OVC015 49 41     74% 45   30.16        
Jan 20 08:53 SSE 7 10 Cloudy OVC013 47 39     74% 44   30.15 30.15      
Jan 20 07:53 E 5 10 Cloudy OVC018 40 34     79% 37   30.14 30.14      
Jan 20 06:53 S 6 10 Cloudy OVC017 43 30     60% 39   30.14 30.14      
Jan 20 06:23 SSW 6 10 Cloudy BKN019 OVC030 43 30     60% 39   30.14        
Jan 20 06:16 S 7 10 Cloudy SCT019 BKN030 OVC065 43 28     55% 39   30.14        
Jan 20 05:53 S 6 10 Cloudy SCT020 OVC026 44 29     55% 41   30.14 30.14      
Jan 20 04:53 SE 5 10 Cloudy OVC025 41 30     65% 38   30.14 30.13      
Jan 20 03:53 SSE 6 10 Cloudy OVC022 42 28     57% 38   30.15 30.15      
Jan 20 03:17 S 5 10 Cloudy BKN022 OVC070 41 28     60% 38   30.15        
Jan 20 02:53 SSW 5 10 Cloudy OVC070 43 26     51% 40   30.15 30.15      
Jan 20 01:53 SSW 6 10 Cloudy OVC065 43 28     55% 39   30.15 30.15      
Jan 20 00:53 S 13 10 Cloudy OVC060 43 26     51% 36   30.15 30.15      
Jan 19 23:53 S 9 10 Cloudy OVC055 43 26     51% 38   30.16 30.16      
Jan 19 22:53 S 8 10 Cloudy OVC050 41 28     60% 36   30.16 30.16      
Jan 19 21:53 SSW 10 10 Cloudy OVC045 43 26     51% 37   30.17 30.16      
Jan 19 20:53 S 7 10 Cloudy OVC043 40 29     65% 35   30.16 30.16      
Jan 19 19:53 ESE 5 10 Cloudy OVC042 37 31     78% 33   30.16 30.16      
Jan 19 18:53 ESE 8 10 Cloudy OVC041 37 32     82% 31   30.16 30.16      
Jan 19 17:53 ESE 7 10 Cloudy SCT031 OVC041 37 32     82% 32   30.16 30.16      
Jan 19 16:53 Calm 10 Cloudy OVC040 37 32     82%     30.16 30.16      
Jan 19 15:53 SE 6 10 Cloudy FEW029 OVC041 41 29     62% 37   30.17 30.17      
Jan 19 15:48 SE 6 10 Cloudy SCT029 OVC043 41 28     61% 37   30.18        
Jan 19 15:18 S 7 10 Cloudy OVC029 40 28     62% 35   30.19        
Jan 19 14:53 S 7 10 Cloudy BKN033 OVC040 41 28     60% 36   30.19 30.19      
Jan 19 13:53 S 7 10 Cloudy BKN032 OVC042 42 26     53% 38   30.2 30.2      
Jan 19 12:53 S 8 10 Cloudy BKN034 OVC047 40 27     60% 34   30.22 30.22      
Jan 19 11:53 S 8 10 Cloudy OVC048 39 24     55% 33   30.26 30.27      
Jan 19 10:53 S 8 10 Cloudy OVC044 37 23     56% 31   30.3 30.3      
Jan 19 09:53 S 6 10 Cloudy OVC044 34 24     67% 29   30.31 30.31      
Jan 19 08:53 S 7 10 Cloudy SCT031 OVC041 32 22     66% 26   30.31 30.31      
Jan 19 07:53 S 6 10 Cloudy OVC044 30 21     69% 24   30.31 30.31      
Jan 19 06:53 S 6 10 Cloudy OVC044 28 20     71% 22   30.29 30.29      
Jan 19 05:53 SSW 7 10 Clear CLR 24 16     71% 16   30.3 30.31      
Jan 19 04:53 SSW 7 10 Clear CLR 24 16     71% 16   30.32 30.32      
Jan 19 03:53 SW 6 10 Clear CLR 26 16     65% 19   30.32 30.33      
Jan 19 02:53 SSW 6 10 Clear CLR 26 16     65% 19   30.33 30.33      
Jan 19 01:53 SSW 9 10 Clear CLR 28 17     63% 19   30.33 30.33      
Jan 19 00:53 SSW 7 10 Clear CLR 25 16     68% 17   30.35 30.35      
Jan 18 23:53 SSW 6 10 Clear CLR 24 16     71% 17   30.37 30.38      
Jan 18 22:53 S 7 10 Clear CLR 27 17     66% 19     30.39      
Jan 18 21:53 SSW 8 10 Clear CLR 26 17     68% 18   30.39 30.39      
Jan 18 19:53 S 3 10 Clear CLR 27 23     85% 23   30.39 30.4      
Jan 18 18:53 E 3 10 Clear CLR 30 25     81% 27   30.4 30.4      
Jan 18 17:53 ESE 8 10 Clear CLR 31 26     82% 23   30.39 30.4      
Jan 18 16:53 ESE 10 10 Clear CLR 35 26     69% 27   30.4 30.4      
Jan 18 15:53 S 6 10 Clear CLR 39 18     42% 35   30.42 30.42      
Jan 18 14:53 S 10 10 Clear CLR 38 18     44% 31   30.44 30.44      
Jan 18 13:53 S 8 10 Clear CLR 36 18     48% 30   30.46 30.46      
Jan 18 12:53 SSW 7 10 Clear CLR 34 15     45% 28     30.5      
Jan 18 11:53 SSW 7 10 Clear CLR 31 15     51% 24   30.55 30.55      
Jun 11 16:53 SSE 11 10 Clear CLR 88 68     52%   92 29.99 29.98      
Jun 09 06:05 Calm 4 Fog/Mist CLR 57 56     96%     29.95        
Jun 09 04:53 Calm 10 Clear CLR 58 57     97%     29.93 29.93      
Jun 08 23:53 Calm 10 Clear   62 58     86%     29.95 29.94      
Jun 08 22:53 Calm 10 Clear CLR 64 58     81%     29.95 29.94      
Jun 08 18:53 NE 7 10 Clear   76 56     50%   76 29.91 29.91      
Jun 08 15:53 N 11 10 Clear CLR 80 54     41%   80 29.95 29.94      
Jun 08 00:53 NNW 5 10 Clear CLR 64 58     81%     29.96 29.96      
Jun 06 12:53 NNE 11 10 Clear CLR 83 68     61%   86 29.81 29.8      
Jun 06 01:38 NNE 7 10 Mostly Cloudy BKN008 73 71     94%   74 29.78        
Notice The following observation data may not be complete
Jun 05 13:53 Calm 10 Cloudy OVC080   70      %     29.76 29.75